Погода в Аэропорте

Россия / Забайкальский край     52°01′05″N   113°18′28″E
темп.,
°C
ветер,
м/с
пор.,
м/с
влажн.,
%
обл.,
%
осадки,
мм/ч
давл.,
гПа
погр.,
м
16 мая, вс
вс1600:00+8зсз613411 0.0 1011650
03:00+5зюз47484 0.0 1011218
06:00+5з613455 0.0 1010527
09:00+10з8125785 0.0 10081028
12:00+15з91344100 0.0 10072039
15:00+16зсз11174189 0.0 10052428
18:00+15зсз9144467 0.0 10042087
21:00+11зсз7125389 0.0 1006812
17 мая, пн
пн1700:00+9зсз51164100 0.0 1007519
03:00+7зюз227588 0.0 100613
06:00+5юз2290100 0.0 100544
09:00+6з0191100 2.7 1004270
12:00+6з2587100 6.4 1004564
15:00+10з476792 6.6 10021233
18:00+14зсз810373 0.1 9982129
21:00+9зсз5104523 0.1 1002297
18 мая, вт
вт1800:00+6сз5104790 0.0 1005359
03:00+3з236184 0.0 100746
06:00+1зюз23685 0.0 100861
09:00+7зсз710415 0.0 10071887
12:00+10зсз7112893 0.0 10052804
15:00+12зсз9122396 0.0 10043308
18:00+12сз8122394 0.0 10033016
21:00+7сз1236100 0.0 100366
19 мая, ср
ср1900:00+6зюз225584 0.0 100445
03:00+5юз2263100 0.0 100465
06:00+5юз3766100 0.0 1003310
09:00+6зюз3468100 0.3 1003817
12:00+9юз4458100 0.0 10011304
15:00+12зюз355397 0.0 9981570
18:00+13зюз554969 0.0 9971474
21:00+9зюз356513 0.0 99895
20 мая, чт
чт2000:00+6зсз227569 0.0 100036
03:00+5ссз1175100 0.0 100119
06:00+5ссв2351100 0.0 100255
09:00+8всв364299 0.0 1002443
12:00+6всв6763100 1.0 1005908
15:00+8всв6865100 1.5 1003730
18:00+11всв6852100 0.0 999724
21:00+8св61071100 0.0 1000405